Starlink 4667

operational
NORAD ID: 53707 Int'l Des: 2022-107 Owner: SPXS Country: US Constellation: starlink
LEOCIRCULAR

Starlink 4667について

説明を読み込み中...

リアルタイム位置

3D地球を読み込み中...

次回通過

高度履歴

Altitude vs Time

uPlot chart will show altitude changes over time

軌道要素

1 53707U 22107H 25303.12700458 -.00001835 00000-0 -97225-4 0 9992
2 53707 53.2183 95.2518 0002453 85.7149 274.4124 15.08827020175352
Epoch: Oct 30, 2025 • Age: 30 hours

現在のステータス

高度 539.4 km
速度 7.60 km/s
衛星直下点 15.97°N, 78.19°W
打ち上げ日 Sep 5, 2022
運用期間 3.1 years
タイプ internet

技術仕様

分類 Payload
質量 305.00 kg
乾燥質量 290.00 kg
総質量 305.00 kg
長さ 0.20 m
直径 2.80 m
スパン 9.00 m
形状 Box + pan
製造者 SPXS
バスタイプ Starlink
フェーズステータス In Orbit
所有者/国 SPXS/US

大規模コンステレーション

Loading constellations...